Location: Oyen
(51.3536°N, 110.4816°W)
Time: 13:37:08
(UTC+00:00)

Envisat - Visible Passes

Search period start: 02 December 2021 00:00
Search period end: 12 December 2021 00:00
Orbit: 764 x 766 km, 98.2° (Epoch: 02 December)

Date Brightness Start Highest point End Pass type
(mag) Time Alt. Az. Time Alt. Az. Time Alt. Az.
02 Dec 4.5 11:48:05 10° NNE 11:52:44 35° E 11:57:22 10° SSE visible
02 Dec 3.4 13:27:06 10° N 13:31:50 40° WNW 13:36:32 10° SW visible
03 Dec 5.9 00:48:49 10° SW 00:52:16 18° W 00:55:44 10° NW visible
03 Dec 5.6 11:12:02 10° NE 11:15:30 18° E 11:18:56 10° SE visible
03 Dec 2.9 12:50:01 10° NNE 12:55:06 76° WNW 13:00:10 10° SSW visible
04 Dec 4.8 00:10:24 10° SSW 00:15:01 35° W 00:19:41 10° NNW visible
04 Dec 3.6 12:13:10 10° NNE 12:18:12 56° E 12:23:11 10° S visible
04 Dec 3.9 13:52:43 10° N 13:56:55 27° WNW 14:01:06 10° WSW visible
05 Dec 6.3 01:16:37 10° W 01:17:58 11° W 01:19:20 10° WNW visible
05 Dec 4.9 11:36:41 10° NNE 11:41:06 29° E 11:45:27 10° SSE visible
05 Dec 3.2 13:15:26 10° N 13:20:20 48° WNW 13:25:12 10° SW visible
06 Dec 5.6 00:36:39 10° SW 00:40:35 22° W 00:44:31 10° NW visible
06 Dec 5.8 11:00:58 10° NE 11:03:46 15° E 11:06:35 10° ESE visible
06 Dec 2.9 12:38:26 10° NNE 12:43:34 88° ESE 12:48:38 10° SSW visible
06 Dec 4.3 14:18:34 10° NNW 14:21:56 18° NW 14:25:17 10° W visible
06 Dec 4.4 23:58:34 10° S 00:03:23 43° W 00:08:15 10° NNW visible
07 Dec 4.0 12:01:41 10° NNE 12:06:35 45° E 12:11:27 10° S visible
07 Dec 3.7 13:41:00 10° N 13:45:28 31° WNW 13:49:54 10° WSW visible
08 Dec 6.0 01:03:40 10° WSW 01:06:13 14° W 01:08:48 10° NW visible
08 Dec 5.2 11:25:21 10° NE 11:29:25 23° E 11:33:27 10° SE visible
08 Dec 3.0 13:03:49 10° N 13:08:49 59° WNW 13:13:48 10° SSW visible
09 Dec 5.3 00:24:37 10° SSW 00:28:53 27° W 00:33:12 10° NW visible
09 Dec 6.0 10:50:14 10° ENE 10:52:03 12° E 10:53:50 10° ESE visible
09 Dec 3.1 12:26:52 10° NNE 12:31:59 73° ESE 12:37:03 10° S visible
09 Dec 4.1 14:06:44 10° N 14:10:31 21° WNW 14:14:17 10° WSW visible
09 Dec 4.0 23:46:49 10° S 23:51:46 53° W 23:56:46 10° NNW visible
10 Dec 4.4 11:50:14 10° NNE 11:54:57 37° E 11:59:39 10° SSE visible
10 Dec 3.4 13:29:18 10° N 13:33:59 38° WNW 13:38:39 10° SW visible
11 Dec 5.9 00:51:13 10° SW 00:54:29 17° W 00:57:48 10° NW visible
11 Dec 5.4 11:14:06 10° NE 11:17:44 19° E 11:21:19 10° SE visible
11 Dec 2.9 12:52:12 10° N 12:57:17 72° WNW 13:02:20 10° SSW visible
11 Dec 4.5 14:32:47 10° NNW 14:35:28 15° NW 14:38:09 10° W visible
